{"data":{"norad_id":49767,"epoch":"2026-05-25T00:30:49.798080Z","epoch_age_seconds":77158,"freshness":"FRESH","line1":"1 49767U 21115AV  26145.02140970  .00000070  00000+0  22491-4 0  9992","line2":"2 49767  53.2136 156.4538 0000875  68.9907 291.1179 15.08836608247206","mean_motion":15.08836608,"eccentricity":8.75e-5,"inclination_deg":53.2136,"raan_deg":156.4538,"arg_perigee_deg":68.9907,"mean_anomaly_deg":291.1179,"bstar":2.2491e-5,"rev_number":24720,"period_min":95.437769229947,"perigee_km":539.1484415293,"apogee_km":540.35907241177,"semimajor_km":6917.8907569705,"source":"CELESTRAK","updated_at":"2026-05-25T13:38:16.840796Z"}}